Flag for Canada Weather past 2 weeks in Edmundston, New Brunswick, Canada

Now
63 °F

Mild.


Feels Like: 63 °F
Forecast: 58 / 77 °F
Wind: 1 mph from Southwest

Location: St Leonard

Current Time: Aug 2, 2014 at 2:33:53 AM

Latest Report: Aug 2, 2014 at 2:00 AM


Visibility: N/A

Pressure: 30.19 "Hg

Humidity: 89%

Dew point: 60 °F

Location of EdmundstonLocation

Historic Weather in Edmundston — Graph

°F

Edmundston temperature yesterday

Maximum temperature yesterday: 77 °F (at 4:00 PM)
Minimum temperature yesterday: 51 °F (at 6:00 AM)
Average temperature yesterday: 65 °F

Past Weeks' High & Low Weather Summary

 TemperatureHumidityPressure
High83 °F (Jul 22, 8:00 PM)100% (Jul 20, 5:00 AM)30.28 "Hg (Jul 20, 5:00 AM)
Low44 °F (Jul 25, 6:00 AM)32% (Jul 25, 6:00 PM)29.44 "Hg (Jul 29, 5:00 AM)
Average66 °F76%29.94 "Hg
* Reported Jul 18 1:00 AM — Aug 2 1:00 AM, Edmundston, Weather by CustomWeather, © 2014

Note: Actual official high and low records may vary slightly from our data, if they occured in-between our weather recording intervals... More about our weather records

Advertising

Edmundston weather history for previous 24 hours

 ConditionsComfort  
Time TempWeatherWind HumidityBarometerVisibility
1:00 AM
Aug 2
65 °FMild.1 mph79%30.19 "HgN/A
12:00 AM65 °FMild.1 mph79%30.18 "HgN/A
11:00 PM
Aug 1
66 °FMild.1 mph78%30.19 "HgN/A
10:00 PM67 °FMild.1 mph78%30.18 "HgN/A
9:00 PM69 °FMild.2 mph72%30.16 "HgN/A
8:00 PM74 °FMild.1 mph61%30.16 "HgN/A
7:00 PM76 °FMild.2 mph56%30.16 "HgN/A
6:00 PM76 °FMild.1 mph58%30.16 "HgN/A
5:00 PM77 °FMild.2 mph57%30.16 "HgN/A
4:00 PM77 °FMild.2 mph53%30.17 "HgN/A
3:00 PM75 °FMild.1 mph54%30.19 "HgN/A
2:00 PM74 °FMild.1 mph55%30.19 "HgN/A
1:00 PM73 °FMild.1 mph61%30.20 "HgN/A
12:00 PM71 °FMild.1 mph68%30.21 "HgN/A
11:00 AM64 °FMild.1 mph89%30.21 "HgN/A
10:00 AM64 °FMild.2 mph86%30.21 "HgN/A
9:00 AM60 °FCool.2 mph96%30.20 "HgN/A
8:00 AM58 °FCool.2 mph95%30.18 "HgN/A
7:00 AM54 °FCool.1 mph98%30.17 "HgN/A
6:00 AM51 °FCool.1 mph97%30.15 "HgN/A
5:00 AM53 °FCool.No wind97%30.14 "HgN/A
4:00 AM56 °FCool.1 mph97%30.14 "HgN/A
3:00 AM57 °FCool.1 mph98%30.14 "HgN/A
2:00 AM58 °FCool.1 mph97%30.14 "HgN/A
Weather by CustomWeather, © 2014

See weather overviewHow to use our weather pages